TimeCET,TemperatureF,Dew PointF,Humidity,Sea Level PressureIn,VisibilityMPH,Wind Direction,Wind SpeedMPH,Gust SpeedMPH,PrecipitationIn,Events,Conditions,WindDirDegrees,DateUTC
12:55 AM,46.4,42.8,87,30.21,6.2,Calm,Calm,-,N/A,,Overcast,0,2013-10-31 23:55:00
1:55 AM,42.8,41.0,93,30.21,6.2,NNE,3.5,-,N/A,,Scattered Clouds,30,2013-11-01 00:55:00
4:55 AM,39.2,39.2,100,30.21,-9999.0,Calm,Calm,-,N/A,,Clear,0,2013-11-01 03:55:00
5:55 AM,39.2,39.2,100,30.18,-9999.0,North,3.5,-,N/A,,Clear,10,2013-11-01 04:55:00
6:55 AM,39.2,39.2,100,30.18,-9999.0,NNE,3.5,-,N/A,,Clear,20,2013-11-01 05:55:00
7:55 AM,39.2,39.2,100,30.21,-9999.0,NNE,3.5,-,N/A,,Clear,20,2013-11-01 06:55:00
8:55 AM,41.0,39.2,93,30.21,-9999.0,North,5.8,-,N/A,,Clear,10,2013-11-01 07:55:00
9:55 AM,46.4,37.4,71,30.18,-9999.0,North,3.5,-,N/A,,Clear,350,2013-11-01 08:55:00
10:55 AM,48.2,35.6,62,30.18,-9999.0,North,3.5,-,N/A,,Clear,350,2013-11-01 09:55:00
11:55 AM,51.8,39.2,62,30.15,-9999.0,SSW,5.8,-,N/A,,Clear,200,2013-11-01 10:55:00
12:55 PM,48.2,39.2,71,30.15,-9999.0,South,6.9,-,N/A,,Clear,180,2013-11-01 11:55:00
1:55 PM,46.4,41.0,81,30.15,-9999.0,South,8.1,-,N/A,,Clear,180,2013-11-01 12:55:00
2:55 PM,46.4,41.0,81,30.12,-9999.0,South,8.1,-,N/A,,Clear,180,2013-11-01 13:55:00
3:55 PM,44.6,41.0,87,30.12,6.2,SSE,6.9,-,N/A,,Scattered Clouds,160,2013-11-01 14:55:00
4:55 PM,44.6,42.8,93,30.12,6.2,SSE,5.8,-,N/A,,Scattered Clouds,160,2013-11-01 15:55:00
5:55 PM,44.6,42.8,93,30.12,6.2,SSE,6.9,-,N/A,,Scattered Clouds,150,2013-11-01 16:55:00
6:55 PM,44.6,42.8,93,30.12,6.2,SSE,6.9,-,N/A,,Scattered Clouds,150,2013-11-01 17:55:00
7:55 PM,44.6,42.8,93,30.12,6.2,SSE,4.6,-,N/A,,Mostly Cloudy,160,2013-11-01 18:55:00
8:55 PM,44.6,42.8,93,30.12,6.2,SSE,5.8,-,N/A,,Mostly Cloudy,160,2013-11-01 19:55:00
9:55 PM,42.8,42.8,100,30.12,6.2,South,4.6,-,N/A,,Mostly Cloudy,170,2013-11-01 20:55:00
10:55 PM,42.8,42.8,100,30.12,6.2,South,5.8,-,N/A,,Mostly Cloudy,170,2013-11-01 21:55:00
11:55 PM,42.8,42.8,100,30.09,6.2,SE,5.8,-,N/A,,Mostly Cloudy,130,2013-11-01 22:55:00